ITY402 LIML-ETNL

Flight info

Callsign ITY402
Flight time 1h 45m
Altitude 38000
Route NESTI DCT GUNGO DCT IVKAL T102 NINUR T101 BETOS M726 KEMES DCT MAG DCT NOBRI M726 TAGOB L23 NUVEN
Aircraft A20N/M-SDE2E3FGHIJ1RWXY/LB1

Departure

Time 2026-04-11 08:38
Airport Milano Linate Airport (LIML)

Arrival

Time 2026-04-11 10:23
Airport Rostock-Laage Airport (ETNL)
Time Latitude Longitude Altitude Speed Heading
2026-04-11 08:25 45.45982 9.27968 364 ft 0 kts 360°
2026-04-11 08:32 45.45969 9.27967 364 ft 2 kts
2026-04-11 08:32 45.45954 9.27968 364 ft 2 kts 359°
2026-04-11 08:33 45.45940 9.27967 364 ft 2 kts 360°
2026-04-11 08:33 45.45925 9.27968 364 ft 2 kts 360°
2026-04-11 08:33 45.45913 9.27967 364 ft 1 kts 26°
2026-04-11 08:33 45.45906 9.27955 364 ft 0 kts 83°
2026-04-11 08:34 45.45906 9.27946 363 ft 1 kts 91°
2026-04-11 08:34 45.45906 9.27943 363 ft 0 kts 90°
2026-04-11 08:35 45.45906 9.27948 363 ft 4 kts 91°
2026-04-11 08:35 45.45835 9.27985 363 ft 15 kts 179°
2026-04-11 08:36 45.45725 9.27984 362 ft 16 kts 180°
2026-04-11 08:36 45.45606 9.27983 362 ft 17 kts 180°
2026-04-11 08:36 45.45490 9.27982 361 ft 13 kts 195°
2026-04-11 08:36 45.45458 9.27857 361 ft 14 kts 264°
2026-04-11 08:37 45.45412 9.27731 360 ft 15 kts 222°
2026-04-11 08:37 45.45318 9.27654 359 ft 16 kts 200°
2026-04-11 08:37 45.45163 9.27641 358 ft 47 kts 175°
2026-04-11 08:37 45.44568 9.27707 355 ft 121 kts 175°
2026-04-11 08:38 45.43515 9.27810 451 ft 170 kts 174°
2026-04-11 08:38 45.42320 9.27951 1053 ft 177 kts 172°
2026-04-11 08:38 45.41118 9.28148 1890 ft 176 kts 172°
2026-04-11 08:38 45.39908 9.28303 2572 ft 182 kts 173°
2026-04-11 08:39 45.38594 9.28437 3033 ft 200 kts 175°
2026-04-11 08:39 45.37147 9.28560 3486 ft 221 kts 175°
2026-04-11 08:39 45.35576 9.28711 4172 ft 231 kts 174°
2026-04-11 08:39 45.33983 9.28877 5104 ft 231 kts 175°
2026-04-11 08:40 45.32335 9.29050 5719 ft 247 kts 175°
2026-04-11 08:40 45.30598 9.29234 6466 ft 256 kts 175°
2026-04-11 08:40 45.28838 9.29422 7330 ft 259 kts 176°
2026-04-11 08:40 45.27050 9.29614 8145 ft 264 kts 176°
2026-04-11 08:41 45.25196 9.29813 8975 ft 269 kts 176°
2026-04-11 08:41 45.23353 9.30167 9755 ft 274 kts 161°
2026-04-11 08:41 45.21731 9.31576 10511 ft 279 kts 132°
2026-04-11 08:41 45.20734 9.33887 11160 ft 287 kts 105°
2026-04-11 08:42 45.20552 9.36738 11622 ft 300 kts 83°
2026-04-11 08:42 45.20774 9.39735 12255 ft 310 kts 82°
2026-04-11 08:42 45.20987 9.42751 13009 ft 314 kts 83°
2026-04-11 08:43 45.21356 9.48959 14516 ft 322 kts 81°
2026-04-11 08:43 45.21962 9.52005 15201 ft 322 kts 58°
2026-04-11 08:43 45.23386 9.54401 15882 ft 321 kts 34°
2026-04-11 08:43 45.25360 9.55824 16242 ft 329 kts 13°
2026-04-11 08:44 45.27623 9.56663 16642 ft 342 kts 11°
2026-04-11 08:44 45.29951 9.57511 17248 ft 348 kts 11°
2026-04-11 08:44 45.32275 9.58382 17922 ft 351 kts 11°
2026-04-11 08:44 45.34670 9.59298 18589 ft 355 kts 12°
2026-04-11 08:45 45.37048 9.60218 19213 ft 359 kts 11°
2026-04-11 08:45 45.39457 9.61156 19830 ft 363 kts 11°
2026-04-11 08:45 45.41908 9.62117 20451 ft 367 kts 11°
2026-04-11 08:45 45.44342 9.63072 21058 ft 370 kts 11°
2026-04-11 08:46 45.46856 9.64059 21659 ft 374 kts 11°
2026-04-11 08:46 45.49367 9.65046 22231 ft 378 kts 12°
2026-04-11 08:46 45.51832 9.66289 22752 ft 388 kts 25°
2026-04-11 08:46 45.53921 9.68805 23253 ft 403 kts 50°
2026-04-11 08:47 45.55330 9.72258 23842 ft 409 kts 62°
2026-04-11 08:47 45.56517 9.75955 24387 ft 413 kts 64°
2026-04-11 08:47 45.57714 9.79684 24918 ft 416 kts 63°
2026-04-11 08:47 45.58966 9.83398 25452 ft 418 kts 62°
2026-04-11 08:48 45.60262 9.87094 25961 ft 421 kts 61°
2026-04-11 08:48 45.61599 9.90820 26461 ft 424 kts 60°
2026-04-11 08:48 45.62958 9.94560 26958 ft 426 kts 60°
2026-04-11 08:48 45.64331 9.98324 27433 ft 429 kts 60°
2026-04-11 08:49 45.65715 10.02110 27883 ft 432 kts 60°
2026-04-11 08:49 45.67103 10.05909 28329 ft 434 kts 60°
2026-04-11 08:49 45.68489 10.09701 28747 ft 437 kts 60°
2026-04-11 08:49 45.69894 10.13554 29150 ft 439 kts 60°
2026-04-11 08:50 45.71320 10.17470 29520 ft 442 kts 60°
2026-04-11 08:50 45.72734 10.21357 29887 ft 444 kts 60°
2026-04-11 08:50 45.74171 10.25318 30247 ft 446 kts 60°
2026-04-11 08:50 45.75594 10.29246 30572 ft 449 kts 60°
2026-04-11 08:51 45.77050 10.33180 30864 ft 451 kts 58°
2026-04-11 08:51 45.78707 10.37032 31159 ft 452 kts 53°
2026-04-11 08:51 45.80557 10.40621 31523 ft 450 kts 47°
2026-04-11 08:51 45.82600 10.43956 31951 ft 447 kts 43°
2026-04-11 08:52 45.87222 10.49807 32728 ft 441 kts 33°
2026-04-11 08:52 45.89714 10.52401 33111 ft 440 kts 31°
2026-04-11 08:52 45.92188 10.54919 33482 ft 440 kts 31°
2026-04-11 08:53 45.94686 10.57459 33842 ft 439 kts 31°
2026-04-11 08:53 45.97152 10.59980 34213 ft 439 kts 31°
2026-04-11 08:53 45.99646 10.62539 34621 ft 438 kts 31°
2026-04-11 08:53 46.02084 10.65049 35048 ft 437 kts 32°
2026-04-11 08:54 46.04569 10.67616 35472 ft 435 kts 32°
2026-04-11 08:54 46.07021 10.70153 35872 ft 433 kts 32°
2026-04-11 08:54 46.09446 10.72663 36261 ft 431 kts 32°
2026-04-11 08:54 46.11885 10.75195 36611 ft 430 kts 32°
2026-04-11 08:55 46.14306 10.77709 36881 ft 430 kts 32°
2026-04-11 08:55 46.16727 10.80226 37112 ft 431 kts 32°
2026-04-11 08:55 46.19168 10.82765 37340 ft 431 kts 32°
2026-04-11 08:55 46.21602 10.85303 37573 ft 432 kts 31°
2026-04-11 08:56 46.24003 10.87810 37805 ft 432 kts 31°
2026-04-11 08:56 46.26452 10.90365 38031 ft 431 kts 31°
2026-04-11 08:56 46.31321 10.95461 38064 ft 432 kts 31°
2026-04-11 08:57 46.36188 11.00419 38065 ft 429 kts 26°
2026-04-11 08:57 46.41529 11.04010 38071 ft 421 kts 13°
2026-04-11 08:58 46.47213 11.05745 38070 ft 412 kts
2026-04-11 08:58 46.52869 11.05762 38075 ft 409 kts 353°
2026-04-11 08:59 46.58567 11.05317 38087 ft 408 kts 352°
2026-04-11 08:59 46.64226 11.04881 38086 ft 408 kts 352°
2026-04-11 09:00 46.69873 11.04460 38097 ft 408 kts 352°
2026-04-11 09:00 46.75562 11.04039 38098 ft 408 kts 352°
2026-04-11 09:01 46.81166 11.03422 38100 ft 404 kts 348°
2026-04-11 09:01 46.86724 11.02380 38106 ft 404 kts 348°
2026-04-11 09:02 46.92318 11.01507 38108 ft 406 kts 352°
2026-04-11 09:02 46.98005 11.01495 38116 ft 410 kts 358°
2026-04-11 09:03 47.03690 11.02246 38119 ft 412 kts
2026-04-11 09:03 47.09419 11.03126 38114 ft 412 kts
2026-04-11 09:04 47.15106 11.03998 38120 ft 413 kts
2026-04-11 09:04 47.20774 11.04864 38108 ft 412 kts
2026-04-11 09:05 47.26474 11.05734 38085 ft 412 kts
2026-04-11 09:05 47.32167 11.06606 38075 ft 412 kts
2026-04-11 09:06 47.37884 11.07482 38067 ft 411 kts
2026-04-11 09:06 47.43558 11.08355 38070 ft 412 kts
2026-04-11 09:07 47.49276 11.09280 38064 ft 414 kts
2026-04-11 09:07 47.54944 11.11070 38050 ft 419 kts 10°
2026-04-11 09:08 47.60476 11.14063 38034 ft 427 kts 18°
2026-04-11 09:08 47.65753 11.18199 38027 ft 432 kts 24°
2026-04-11 09:09 47.70882 11.22663 38015 ft 430 kts 22°
2026-04-11 09:09 47.76213 11.26491 38009 ft 424 kts 15°
2026-04-11 09:10 47.81714 11.29603 37998 ft 422 kts 13°
2026-04-11 09:10 47.87247 11.32102 37994 ft 417 kts
2026-04-11 09:11 47.92923 11.33670 37994 ft 411 kts
2026-04-11 09:11 47.98556 11.34337 37995 ft 409 kts 356°
2026-04-11 09:12 48.04216 11.34721 37993 ft 406 kts 354°
2026-04-11 09:12 48.09799 11.34381 37998 ft 400 kts 348°
2026-04-11 09:13 48.15291 11.33377 37999 ft 400 kts 346°
2026-04-11 09:13 48.20804 11.32290 38003 ft 400 kts 346°
2026-04-11 09:14 48.26295 11.31215 38003 ft 399 kts 347°
2026-04-11 09:14 48.31820 11.30308 38009 ft 400 kts 348°
2026-04-11 09:15 48.37354 11.29456 38012 ft 399 kts 348°
2026-04-11 09:15 48.42834 11.28597 38014 ft 398 kts 347°
2026-04-11 09:16 48.48348 11.27727 38021 ft 398 kts 347°
2026-04-11 09:16 48.53841 11.26855 38024 ft 398 kts 347°
2026-04-11 09:17 48.59347 11.25977 38019 ft 399 kts 347°
2026-04-11 09:17 48.64840 11.25102 38028 ft 398 kts 347°
2026-04-11 09:18 48.70314 11.24224 38030 ft 397 kts 347°
2026-04-11 09:18 48.75791 11.23342 38032 ft 396 kts 347°
2026-04-11 09:19 48.81265 11.22461 38029 ft 396 kts 347°
2026-04-11 09:19 48.86773 11.21964 38027 ft 400 kts 353°
2026-04-11 09:20 48.92351 11.21970 38026 ft 402 kts 353°
2026-04-11 09:20 48.97888 11.22010 38029 ft 400 kts 353°
2026-04-11 09:21 49.03457 11.22047 38014 ft 400 kts 353°
2026-04-11 09:21 49.09014 11.22080 38013 ft 400 kts 353°
2026-04-11 09:22 49.14541 11.22112 38017 ft 400 kts 353°
2026-04-11 09:22 49.20101 11.22142 38019 ft 399 kts 353°
2026-04-11 09:23 49.25623 11.22180 38019 ft 400 kts 353°
2026-04-11 09:23 49.31182 11.22227 38026 ft 399 kts 353°
2026-04-11 09:24 49.36726 11.22273 38030 ft 399 kts 353°
2026-04-11 09:24 49.42252 11.22318 38029 ft 399 kts 353°
2026-04-11 09:25 49.47787 11.22363 38036 ft 399 kts 353°
2026-04-11 09:25 49.53330 11.22461 38039 ft 400 kts 355°
2026-04-11 09:26 49.58861 11.23262 38033 ft 405 kts
2026-04-11 09:26 49.64451 11.24490 38032 ft 405 kts
2026-04-11 09:27 49.69997 11.25734 38028 ft 404 kts
2026-04-11 09:27 49.75530 11.26970 38021 ft 404 kts
2026-04-11 09:28 49.81090 11.28212 38022 ft 405 kts
2026-04-11 09:28 49.86644 11.29456 38025 ft 403 kts
2026-04-11 09:29 49.92153 11.30694 38029 ft 403 kts
2026-04-11 09:29 49.97674 11.31933 38030 ft 403 kts
2026-04-11 09:30 50.03205 11.33181 38033 ft 402 kts
2026-04-11 09:30 50.08715 11.34427 38033 ft 403 kts
2026-04-11 09:31 50.14253 11.35683 38035 ft 401 kts
2026-04-11 09:31 50.19767 11.36937 38027 ft 401 kts 360°
2026-04-11 09:32 50.25274 11.38187 38025 ft 401 kts 360°
2026-04-11 09:32 50.30792 11.39445 38026 ft 402 kts 360°
2026-04-11 09:33 50.36294 11.40703 38022 ft 402 kts 360°
2026-04-11 09:33 50.41803 11.41966 38024 ft 401 kts 360°
2026-04-11 09:34 50.47314 11.43234 38025 ft 401 kts 360°
2026-04-11 09:34 50.52773 11.44489 38027 ft 399 kts 360°
2026-04-11 09:35 50.58261 11.45755 38031 ft 400 kts 360°
2026-04-11 09:35 50.63773 11.47030 38040 ft 400 kts 360°
2026-04-11 09:36 50.69255 11.48301 38054 ft 399 kts 360°
2026-04-11 09:36 50.74743 11.49577 38057 ft 400 kts 360°
2026-04-11 09:37 50.80199 11.50850 38053 ft 398 kts 360°
2026-04-11 09:37 50.85655 11.52123 38053 ft 399 kts 359°
2026-04-11 09:38 50.91140 11.53407 38054 ft 398 kts 359°
2026-04-11 09:38 50.96596 11.54687 38058 ft 397 kts 359°
2026-04-11 09:39 51.02037 11.55965 38055 ft 398 kts 360°
2026-04-11 09:39 51.07529 11.57262 38060 ft 399 kts 359°
2026-04-11 09:40 51.12984 11.58549 38061 ft 398 kts 359°
2026-04-11 09:40 51.18454 11.59847 38064 ft 397 kts 360°
2026-04-11 09:41 51.23864 11.61132 38067 ft 397 kts 359°
2026-04-11 09:41 51.29314 11.62428 38065 ft 397 kts 359°
2026-04-11 09:42 51.34785 11.63735 38068 ft 398 kts 359°
2026-04-11 09:43 51.42953 11.65691 38071 ft 396 kts
2026-04-11 09:43 51.48397 11.66997 38072 ft 397 kts
2026-04-11 09:44 51.53833 11.68304 38073 ft 397 kts
2026-04-11 09:44 51.59255 11.69614 38078 ft 397 kts
2026-04-11 09:45 51.64719 11.70934 38083 ft 397 kts
2026-04-11 09:45 51.70173 11.72257 38086 ft 396 kts
2026-04-11 09:46 51.75595 11.73575 38086 ft 396 kts
2026-04-11 09:46 51.81023 11.74898 38094 ft 396 kts
2026-04-11 09:47 51.86456 11.76228 38092 ft 397 kts
2026-04-11 09:47 51.91876 11.77554 38095 ft 396 kts 360°
2026-04-11 09:48 51.97297 11.78632 38093 ft 391 kts 356°
2026-04-11 09:48 52.02699 11.78774 38098 ft 385 kts 350°
2026-04-11 09:49 52.07983 11.78100 38100 ft 382 kts 347°
2026-04-11 09:49 52.13236 11.77270 38099 ft 382 kts 347°
2026-04-11 09:50 52.18505 11.76434 38101 ft 381 kts 347°
2026-04-11 09:50 52.23785 11.75594 38102 ft 382 kts 347°
2026-04-11 09:51 52.29067 11.74754 38102 ft 382 kts 347°
2026-04-11 09:51 52.34319 11.73917 38097 ft 382 kts 347°
2026-04-11 09:52 52.39606 11.73069 38100 ft 382 kts 347°
2026-04-11 09:52 52.44857 11.72227 38098 ft 383 kts 347°
2026-04-11 09:53 52.50148 11.71379 38098 ft 382 kts 347°
2026-04-11 09:53 52.55458 11.70524 38097 ft 384 kts 347°
2026-04-11 09:54 52.60753 11.69670 38096 ft 384 kts 347°
2026-04-11 09:54 52.66048 11.68810 38098 ft 382 kts 347°
2026-04-11 09:55 52.71311 11.67959 38095 ft 383 kts 347°
2026-04-11 09:55 52.76617 11.67096 38096 ft 383 kts 347°
2026-04-11 09:56 52.81878 11.66240 37476 ft 384 kts 347°
2026-04-11 09:56 52.84522 11.65814 36161 ft 390 kts 346°
2026-04-11 09:56 52.87228 11.65376 34599 ft 395 kts 345°
2026-04-11 09:56 52.89910 11.64934 33140 ft 398 kts 346°
2026-04-11 09:57 52.92625 11.64467 31711 ft 399 kts 347°
2026-04-11 09:57 52.95384 11.63997 30212 ft 399 kts 348°
2026-04-11 09:57 52.98083 11.63552 29110 ft 389 kts 349°
2026-04-11 09:57 53.00738 11.63126 27950 ft 383 kts 349°
2026-04-11 09:58 53.03333 11.62704 26730 ft 379 kts 349°
2026-04-11 09:58 53.05930 11.62277 25521 ft 375 kts 350°
2026-04-11 09:58 53.08466 11.61862 24963 ft 359 kts 351°
2026-04-11 09:58 53.10932 11.61459 24584 ft 356 kts 351°
2026-04-11 09:59 53.13384 11.61058 24161 ft 354 kts 351°
2026-04-11 09:59 53.15797 11.60657 23712 ft 353 kts 351°
2026-04-11 09:59 53.18235 11.60255 23228 ft 351 kts 351°
2026-04-11 09:59 53.20626 11.59860 22780 ft 348 kts 351°
2026-04-11 10:00 53.23047 11.59519 22343 ft 346 kts 355°
2026-04-11 10:00 53.25425 11.59681 21875 ft 348 kts
2026-04-11 10:00 53.27823 11.60435 21427 ft 350 kts 10°
2026-04-11 10:00 53.30137 11.61530 20986 ft 349 kts 12°
2026-04-11 10:01 53.32449 11.62692 20551 ft 347 kts 12°
2026-04-11 10:01 53.34736 11.63842 20137 ft 344 kts 12°
2026-04-11 10:01 53.37000 11.64977 19718 ft 341 kts 12°
2026-04-11 10:01 53.39268 11.66113 19287 ft 339 kts 12°
2026-04-11 10:02 53.41501 11.67226 18859 ft 337 kts 12°
2026-04-11 10:02 53.43739 11.68342 18451 ft 334 kts 12°
2026-04-11 10:02 53.45953 11.69444 18034 ft 332 kts 12°
2026-04-11 10:02 53.48151 11.70543 17617 ft 330 kts 12°
2026-04-11 10:03 53.50351 11.71640 17196 ft 328 kts 13°
2026-04-11 10:03 53.52501 11.72716 16765 ft 326 kts 13°
2026-04-11 10:03 53.54672 11.73806 16342 ft 324 kts 13°
2026-04-11 10:03 53.56811 11.74879 15920 ft 322 kts 13°
2026-04-11 10:04 53.58947 11.75952 15494 ft 321 kts 13°
2026-04-11 10:04 53.61079 11.77029 15075 ft 319 kts 14°
2026-04-11 10:04 53.63182 11.78088 14667 ft 317 kts 14°
2026-04-11 10:04 53.65300 11.79157 14249 ft 315 kts 14°
2026-04-11 10:05 53.67388 11.80211 13831 ft 314 kts 14°
2026-04-11 10:05 53.69452 11.81256 13423 ft 312 kts 14°
2026-04-11 10:05 53.71439 11.82649 12987 ft 315 kts 32°
2026-04-11 10:05 53.72938 11.85306 12565 ft 321 kts 56°
2026-04-11 10:06 53.73679 11.88869 12136 ft 326 kts 81°
2026-04-11 10:06 53.73787 11.92669 11712 ft 327 kts 86°
2026-04-11 10:06 53.73841 11.96501 11270 ft 326 kts 86°
2026-04-11 10:06 53.73900 12.00317 10836 ft 325 kts 86°
2026-04-11 10:07 53.73972 12.04092 10411 ft 324 kts 85°
2026-04-11 10:07 53.74048 12.07814 10245 ft 312 kts 85°
2026-04-11 10:07 53.74124 12.11402 10133 ft 299 kts 85°
2026-04-11 10:07 53.74197 12.14862 10131 ft 292 kts 85°
2026-04-11 10:08 53.74265 12.18269 10127 ft 293 kts 86°
2026-04-11 10:08 53.74431 12.21651 10125 ft 291 kts 72°
2026-04-11 10:08 53.75317 12.24686 10129 ft 284 kts 46°
2026-04-11 10:08 53.76849 12.26656 10110 ft 278 kts 20°
2026-04-11 10:09 53.78716 12.27248 9985 ft 274 kts 354°
2026-04-11 10:09 53.80503 12.26327 9853 ft 272 kts 327°
2026-04-11 10:09 53.81830 12.24116 9723 ft 273 kts 302°
2026-04-11 10:09 53.82442 12.21102 9478 ft 275 kts 280°
2026-04-11 10:10 53.82638 12.17859 9225 ft 276 kts 276°
2026-04-11 10:10 53.82759 12.14636 8975 ft 276 kts 275°
2026-04-11 10:10 53.82871 12.11379 8732 ft 277 kts 275°
2026-04-11 10:10 53.82980 12.08181 8492 ft 277 kts 275°
2026-04-11 10:11 53.83099 12.04925 8228 ft 277 kts 275°
2026-04-11 10:11 53.83223 12.01674 7968 ft 276 kts 275°
2026-04-11 10:11 53.83348 11.98451 7661 ft 273 kts 275°
2026-04-11 10:11 53.83478 11.95284 7282 ft 272 kts 275°
2026-04-11 10:12 53.83619 11.92082 6899 ft 272 kts 275°
2026-04-11 10:12 53.83765 11.88933 6524 ft 271 kts 275°
2026-04-11 10:12 53.83918 11.85744 6144 ft 271 kts 275°
2026-04-11 10:12 53.84074 11.82594 5761 ft 271 kts 275°
2026-04-11 10:13 53.84236 11.79418 5376 ft 271 kts 275°
2026-04-11 10:13 53.84407 11.76249 5034 ft 268 kts 275°
2026-04-11 10:13 53.84583 11.73159 4869 ft 260 kts 275°
2026-04-11 10:13 53.84758 11.70201 4683 ft 253 kts 275°
2026-04-11 10:14 53.84936 11.67246 4396 ft 250 kts 275°
2026-04-11 10:14 53.85198 11.64347 4057 ft 251 kts 288°
2026-04-11 10:14 53.86120 11.61917 3701 ft 250 kts 323°
2026-04-11 10:14 53.87679 11.60799 3443 ft 244 kts 355°
2026-04-11 10:15 53.89343 11.61109 3305 ft 239 kts 28°
2026-04-11 10:15 53.90605 11.62799 3179 ft 231 kts 59°
2026-04-11 10:15 53.91240 11.65257 3063 ft 228 kts 75°
2026-04-11 10:15 53.91736 11.67797 2954 ft 227 kts 75°
2026-04-11 10:16 53.92233 11.70320 2948 ft 227 kts 75°
2026-04-11 10:16 53.92734 11.72835 2950 ft 227 kts 74°
2026-04-11 10:16 53.93243 11.75362 2955 ft 227 kts 74°
2026-04-11 10:16 53.93758 11.77903 2956 ft 227 kts 74°
2026-04-11 10:17 53.94193 11.80479 2957 ft 226 kts 82°
2026-04-11 10:17 53.94373 11.83095 2958 ft 225 kts 90°
2026-04-11 10:17 53.94399 11.85769 2960 ft 225 kts 91°
2026-04-11 10:17 53.94403 11.88430 2959 ft 225 kts 91°
2026-04-11 10:18 53.94408 11.91034 2956 ft 218 kts 91°
2026-04-11 10:18 53.94389 11.93534 2949 ft 203 kts 94°
2026-04-11 10:18 53.94322 11.95854 2950 ft 195 kts 95°
2026-04-11 10:18 53.94213 11.98124 2961 ft 193 kts 97°
2026-04-11 10:19 53.94063 12.00341 3011 ft 178 kts 98°
2026-04-11 10:19 53.93904 12.02369 2923 ft 171 kts 99°
2026-04-11 10:19 53.93740 12.04331 2689 ft 167 kts 99°
2026-04-11 10:19 53.93579 12.06256 2469 ft 166 kts 100°
2026-04-11 10:20 53.93419 12.08169 2268 ft 160 kts 99°
2026-04-11 10:20 53.93271 12.09961 2037 ft 147 kts 99°
2026-04-11 10:20 53.93135 12.11619 1816 ft 136 kts 100°
2026-04-11 10:20 53.93006 12.13183 1646 ft 135 kts 99°
2026-04-11 10:21 53.92874 12.14766 1480 ft 136 kts 99°
2026-04-11 10:21 53.92744 12.16361 1301 ft 135 kts 99°
2026-04-11 10:21 53.92619 12.17926 1123 ft 134 kts 99°
2026-04-11 10:21 53.92494 12.19470 941 ft 129 kts 99°
2026-04-11 10:22 53.92375 12.20943 756 ft 125 kts 100°
2026-04-11 10:22 53.92257 12.22392 589 ft 124 kts 99°
2026-04-11 10:22 53.92140 12.23847 441 ft 124 kts 99°
2026-04-11 10:22 53.92022 12.25289 266 ft 124 kts 99°
2026-04-11 10:23 53.91915 12.26690 140 ft 113 kts 98°
2026-04-11 10:23 53.91823 12.27737 137 ft 64 kts 97°
2026-04-11 10:23 53.91792 12.28207 135 ft 15 kts 92°
2026-04-11 10:23 53.91787 12.28309 135 ft 11 kts 98°
2026-04-11 10:24 53.91771 12.28452 134 ft 13 kts 100°
2026-04-11 10:24 53.91752 12.28638 132 ft 19 kts 97°
2026-04-11 10:24 53.91736 12.28889 129 ft 23 kts 96°
2026-04-11 10:24 53.91708 12.29192 125 ft 27 kts 99°
2026-04-11 10:25 53.91677 12.29536 119 ft 31 kts 99°
2026-04-11 10:25 53.91601 12.29778 115 ft 20 kts 172°
2026-04-11 10:25 53.91474 12.29703 114 ft 19 kts 237°
2026-04-11 10:25 53.91470 12.29495 117 ft 17 kts 276°
2026-04-11 10:26 53.91484 12.29292 121 ft 17 kts 276°
2026-04-11 10:26 53.91499 12.29094 124 ft 17 kts 277°
2026-04-11 10:26 53.91497 12.28898 127 ft 16 kts 245°
2026-04-11 10:26 53.91478 12.28819 128 ft 0 kts 243°